Juneau, WI

6:56 PM CDT on April 25, 2017 (GMT -0500)
Dodge County

Weather History for KUNU - February, 2014

Change the Weather History Date:

Thursday, February 27, 2014

  Actual Average Record
Temperature  
Mean Temperature 2 °F -  
Max Temperature 8 °F 31 °F 57 °F (1976)
Min Temperature -6 °F 19 °F -10 °F (1993)
Degree Days  
Heating Degree Days 64    
Moisture  
Dew Point -18 °F    
Average Humidity 43    
Maximum Humidity 76    
Minimum Humidity 25    
Precipitation  
Precipitation 0.00 in - - ()
Sea Level Pressure  
Sea Level Pressure 30.01 in    
Wind  
Wind Speed 12 mph (WNW)    
Max Wind Speed 20 mph    
Max Gust Speed 28 mph    
Visibility 9 miles    
Events Snow    
Averages and records for this station are not official NWS values.
T = Trace of Precipitation, MM = Missing Value Source: NWS Daily Summary

Daily Weather History Graph

Daily Weather History Graph

Search for Another Location

Airport or City:

Trip Planner

Search our weather history database for the weather conditions in past years. The results will help you decide how hot, cold, wet, or windy it might be!

Date:

Astronomy

Feb. 27, 2014 Rise Set
Actual Time 6:34 AM CST 5:41 PM CST
Civil Twilight 6:05 AM CST 6:09 PM CST
Nautical Twilight 5:32 AM CST 6:43 PM CST
Astronomical Twilight 4:59 AM CST 7:16 PM CST
Moon 5:08 AM CST (2/27) 4:05 PM CST (2/27)
Length of Visible Light 12h 04m
Length of Day
11h 06m
Waning Crescent, 4% of the Moon is Illuminated
Feb 27
Waning Crescent
Mar 1
New
Mar 8
First Quarter
Mar 16
Full
Mar 23
Last Quarter

Hourly Weather History & Observations

Time (CST) Temp. Windchill Dew Point Humidity Pressure Visibility Wind Dir Wind Speed Gust Speed Precip Events Conditions
12:15 AM 8.6 °F -10.0 °F 0.1 °F 68% 29.62 in 1.5 mi NW 18.4 mph 27.6 mph N/A Snow Light Snow
12:35 AM 8.1 °F -10.7 °F 0.7 °F 72% 29.64 in 0.8 mi NW 18.4 mph 27.6 mph N/A Snow Light Snow
12:55 AM 7.7 °F -7.4 °F 1.6 °F 76% 29.65 in 3.0 mi WNW 11.5 mph 19.6 mph N/A   Haze
1:15 AM 7.5 °F -11.4 °F -6.7 °F 52% 29.67 in 10.0 mi WNW 18.4 mph 23.0 mph N/A   Mostly Cloudy
1:35 AM 6.8 °F -10.7 °F -3.1 °F 64% 29.68 in 1.8 mi WNW 15.0 mph 27.6 mph N/A Snow Light Snow
1:55 AM 6.6 °F -9.5 °F -7.6 °F 52% 29.69 in 10.0 mi WNW 12.7 mph 24.2 mph N/A   Overcast
2:15 AM 5.9 °F -14.1 °F -6.2 °F 58% 29.71 in 5.0 mi NW 19.6 mph 25.3 mph N/A Snow Light Snow
2:35 AM 4.1 °F -15.9 °F -12.3 °F 47% 29.72 in 4.0 mi NW 18.4 mph 27.6 mph N/A   Haze
2:55 AM 3.2 °F -15.9 °F -14.1 °F 45% 29.74 in 10.0 mi NW 16.1 mph 25.3 mph N/A   Scattered Clouds
3:15 AM 2.5 °F -16.2 °F -15.9 °F 42% 29.76 in 10.0 mi NW 15.0 mph 24.2 mph N/A   Clear
3:35 AM 1.4 °F -16.9 °F -15.9 °F 44% 29.78 in 10.0 mi NW 13.8 mph 21.9 mph N/A   Clear
3:55 AM 0.5 °F -18.0 °F -16.1 °F 46% 29.80 in 10.0 mi NW 13.8 mph 21.9 mph N/A   Clear
4:15 AM 0.1 °F -19.8 °F -17.5 °F 43% 29.82 in 10.0 mi NW 16.1 mph 27.6 mph N/A   Clear
4:35 AM -0.6 °F -20.1 °F -17.3 °F 45% 29.83 in 10.0 mi NW 15.0 mph 19.6 mph N/A   Clear
4:55 AM -1.3 °F -20.3 °F -17.9 °F 45% 29.85 in 10.0 mi WNW 13.8 mph 23.0 mph N/A   Clear
5:15 AM -1.7 °F -20.8 °F -17.9 °F 46% 29.87 in 10.0 mi NW 13.8 mph 21.9 mph N/A   Clear
5:35 AM -2.2 °F -23.5 °F -18.6 °F 46% 29.88 in 10.0 mi NW 17.3 mph 25.3 mph N/A   Clear
5:55 AM -3.1 °F -23.3 °F -18.8 °F 47% 29.90 in 10.0 mi NW 15.0 mph 21.9 mph N/A   Clear
6:15 AM -3.6 °F -22.5 °F -18.6 °F 49% 29.92 in 10.0 mi WNW 12.7 mph 18.4 mph N/A   Clear
6:35 AM -4.0 °F -22.1 °F -19.3 °F 48% 29.94 in 10.0 mi NW 11.5 mph 18.4 mph N/A   Clear
6:55 AM -4.4 °F -21.6 °F -19.3 °F 49% 29.95 in 10.0 mi WNW 10.4 mph - N/A   Clear
7:15 AM -4.5 °F -24.4 °F -19.7 °F 48% 29.96 in 10.0 mi WNW 13.8 mph 23.0 mph N/A   Clear
7:35 AM -4.4 °F -21.6 °F -19.8 °F 47% 29.98 in 10.0 mi WNW 10.4 mph 17.3 mph N/A   Clear
7:55 AM -4.2 °F -24.0 °F -20.2 °F 46% 29.99 in 10.0 mi NW 13.8 mph 23.0 mph N/A   Clear
8:15 AM -4.0 °F -23.0 °F -19.8 °F 47% 30.01 in 10.0 mi WNW 12.7 mph 19.6 mph N/A   Clear
8:35 AM -3.6 °F -23.3 °F -19.7 °F 46% 30.02 in 10.0 mi WNW 13.8 mph 20.7 mph N/A   Clear
8:55 AM -3.1 °F -22.6 °F -19.3 °F 46% 30.04 in 10.0 mi NW 13.8 mph 18.4 mph N/A   Clear
9:15 AM -2.7 °F -21.4 °F -19.5 °F 45% 30.05 in 10.0 mi WNW 12.7 mph - N/A   Clear
9:30 AM -2.4 °F -18.2 °F -19.1 °F 45% 30.06 in 10.0 mi NW 9.2 mph - N/A   Clear
9:55 AM -1.8 °F -20.2 °F -19.1 °F 44% 30.07 in 10.0 mi NW 12.7 mph 19.6 mph N/A   Clear
10:15 AM -1.3 °F -17.8 °F -19.1 °F 43% 30.08 in 10.0 mi NW 10.4 mph 18.4 mph N/A   Clear
10:35 AM -0.9 °F -16.4 °F -18.9 °F 42% 30.09 in 10.0 mi WNW 9.2 mph 16.1 mph N/A   Clear
10:55 AM -0.4 °F -13.4 °F -18.8 °F 42% 30.10 in 10.0 mi NW 6.9 mph 17.3 mph N/A   Clear
11:15 AM -0.0 °F -16.3 °F -19.7 °F 39% 30.10 in 10.0 mi WNW 10.4 mph - N/A   Clear
11:35 AM 1.0 °F -11.7 °F -17.9 °F 41% 30.10 in 10.0 mi WNW 6.9 mph - N/A   Clear
11:55 AM 1.2 °F -12.7 °F -18.6 °F 39% 30.11 in 10.0 mi WNW 8.1 mph - N/A   Clear
12:15 PM 1.4 °F -12.5 °F -18.8 °F 38% 30.10 in 10.0 mi West 8.1 mph - N/A   Clear
12:35 PM 2.3 °F -10.2 °F -19.5 °F 36% 30.10 in 10.0 mi WNW 6.9 mph - N/A   Clear
12:55 PM 2.3 °F -10.2 °F -18.4 °F 38% 30.10 in 10.0 mi West 6.9 mph - N/A   Clear
1:15 PM 2.8 °F -8.2 °F -18.9 °F 36% 30.10 in 10.0 mi West 5.8 mph - N/A   Clear
1:35 PM 3.0 °F -10.5 °F -21.1 °F 32% 30.10 in 10.0 mi West 8.1 mph - N/A   Clear
1:55 PM 3.0 °F -9.3 °F -18.6 °F 36% 30.10 in 10.0 mi WSW 6.9 mph - N/A   Clear
2:15 PM 3.2 °F -7.8 °F -21.8 °F 30% 30.11 in 10.0 mi WNW 5.8 mph - N/A   Clear
2:35 PM 3.9 °F -8.2 °F -23.4 °F 27% 30.11 in 10.0 mi NW 6.9 mph - N/A   Clear
2:55 PM 3.9 °F -5.3 °F -24.2 °F 26% 30.11 in 10.0 mi West 4.6 mph - N/A   Clear
3:15 PM 4.1 °F -8.0 °F -23.3 °F 27% 30.11 in 10.0 mi West 6.9 mph - N/A   Clear
3:35 PM 4.1 °F -6.7 °F -23.1 °F 27% 30.11 in 10.0 mi West 5.8 mph - N/A   Clear
3:55 PM 3.9 °F -8.2 °F -24.7 °F 25% 30.11 in 10.0 mi NW 6.9 mph - N/A   Clear
4:15 PM 3.9 °F -5.3 °F -24.0 °F 26% 30.12 in 10.0 mi WNW 4.6 mph - N/A   Clear
4:35 PM 3.7 °F -5.5 °F -23.4 °F 27% 30.12 in 10.0 mi West 4.6 mph - N/A   Clear
4:55 PM 3.2 °F -9.1 °F -23.3 °F 28% 30.12 in 10.0 mi WSW 6.9 mph - N/A   Clear
5:15 PM 3.2 °F -6.2 °F -24.5 °F 27% 30.12 in 10.0 mi West 4.6 mph - N/A   Clear
5:35 PM 2.8 °F -4.6 °F -22.0 °F 31% 30.12 in 10.0 mi West 3.5 mph - N/A   Clear
5:55 PM 2.1 °F -5.4 °F -20.4 °F 34% 30.13 in 10.0 mi West 3.5 mph - N/A   Clear
6:15 PM 1.8 °F - -21.8 °F 32% 30.13 in 10.0 mi Calm Calm - N/A   Clear
6:35 PM 1.8 °F - -22.4 °F 32% 30.13 in 10.0 mi Calm Calm - N/A   Clear
6:55 PM 1.4 °F - -20.2 °F 36% 30.14 in 10.0 mi Calm Calm - N/A   Clear
7:15 PM 0.5 °F - -20.0 °F 38% 30.14 in 10.0 mi Calm Calm - N/A   Clear
7:35 PM 0.1 °F - -19.1 °F 40% 30.14 in 10.0 mi Calm Calm - N/A   Clear
7:55 PM -0.0 °F - -18.6 °F 41% 30.14 in 10.0 mi Calm Calm - N/A   Clear
8:15 PM -0.0 °F - -16.6 °F 46% 30.14 in 10.0 mi Calm Calm - N/A   Clear
8:35 PM -1.3 °F - -17.1 °F 47% 30.14 in 10.0 mi Calm Calm - N/A   Clear
8:55 PM -1.1 °F -9.1 °F -17.5 °F 46% 30.15 in 10.0 mi South 3.5 mph - N/A   Clear
9:15 PM -1.5 °F - -17.7 °F 46% 30.15 in 10.0 mi Calm Calm - N/A   Clear
9:35 PM -2.4 °F - -16.6 °F 51% 30.15 in 10.0 mi Calm Calm - N/A   Clear
9:55 PM -2.7 °F - -17.5 °F 49% 30.15 in 10.0 mi Calm Calm - N/A   Clear
10:15 PM -4.9 °F -13.4 °F -17.7 °F 54% 30.15 in 10.0 mi ESE 3.5 mph - N/A   Clear
10:30 PM -4.2 °F - -18.2 °F 51% 30.15 in 10.0 mi Calm Calm - N/A   Clear
10:55 PM -5.1 °F -15.8 °F -18.2 °F 53% 30.16 in 10.0 mi SE 4.6 mph - N/A   Clear
11:15 PM -5.6 °F - -18.6 °F 54% 30.16 in 10.0 mi Calm Calm - N/A   Clear
11:30 PM -5.8 °F -18.4 °F -18.6 °F 54% 30.16 in 10.0 mi ESE 5.8 mph - N/A   Clear
11:55 PM -6.0 °F -16.9 °F -18.8 °F 54% 30.16 in 10.0 mi SE 4.6 mph - N/A   Clear